Regional Weather Roundup
Issued by NWS

Home | Current Version | Previous Version | Graphics & Text | Print | Product List | Glossary On
Versions: 1 2 3 4 5 6 7 8 9 10 11 12 13 14 15 16 17 18 19 20 21 22 23 24 25 26 27 28 29 30 31 32 33 34 35 36 37 38 39 40 41 42 43 44 45 46 47 48 49 50
000
ASUS43 KMKX 240059
RWRWI

WISCONSIN REGIONAL WEATHER ROUNDUP
NATIONAL WEATHER SERVICE MILWAUKEE/SULLIVAN WI
700 PM CST TUE JAN 23 2018

NOTE: "FAIR" INDICATES FEW OR NO CLOUDS BELOW 12,000 FEET WITH NO
SIGNIFICANT WEATHER AND/OR OBSTRUCTIONS TO VISIBILITY.

WIZ001-002-006>008-014>016-023>028-240200-
NORTHWEST WISCONSIN

CITY           SKY/WX    TMP DP  RH WIND       PRES   REMARKS
SUPERIOR ARPT  FAIR      14   7  73 CALM      30.14S
ASHLAND        MOCLDY    15  12  88 SW5       30.14R WCI   8
HAYWARD        MOCLDY    16  11  80 CALM      30.12R
SIREN          FAIR      10   6  83 CALM      30.15R
CUMBERLAND     FAIR       9   5  85 NW3       30.12R
RICE LAKE      CLOUDY    17  12  83 CALM      30.14R
CHETEK         MOCLDY    15  12  88 CALM      30.13R
LADYSMITH      CLOUDY    21  16  82 N6        30.12R WCI  13
EAU CLAIRE     NOT AVBL
MENOMONIE      FAIR      16  11  82 W3        30.14S
NEW RICHMOND   CLOUDY    10   6  82 CALM      30.15R
OSCEOLA        FAIR      10   6  86 CALM      30.18R
$$

WIZ003>005-009-010-017-018-240200-
NORTH CENTRAL WISCONSIN

CITY           SKY/WX    TMP DP  RH WIND       PRES   REMARKS
MANITOWISH WTR FLURRIES  17  15  91 N5        30.06R WCI  10
ARBOR VITAE    CLOUDY    19  14  81 NE5       30.05R WCI  12
WOODRUFF       CLOUDY    19  14  81 NE5       30.05R WCI  12
RHINELANDER    MOCLDY    18  13  80 N5        30.06R WCI  11
EAGLE RIVER    MOCLDY    14   9  82 N5        30.05R WCI   6
LAND O LAKES   FLURRIES  14  11  88 N5        30.06R WCI   6
PHILLIPS       FLURRIES  19  16  87 NW5       30.08R WCI  12
TOMAHAWK       CLOUDY    19  16  86 NW3       30.06R
MEDFORD        CLOUDY    19  15  84 N7        30.07R WCI  10
MERRILL        CLOUDY    21  17  84 N7        30.08R WCI  13
$$

WIZ029-030-035-036-043>047-240200-
CENTRAL WISCONSIN

CITY           SKY/WX    TMP DP  RH WIND       PRES   REMARKS
WAUSAU         CLOUDY    22  16  78 N7        30.06R WCI  13
MOSINEE        CLOUDY    21  19  93 NW9       30.08R WCI  11
MARSHFIELD     CLOUDY    21  16  81 NW8       30.08R WCI  11
STEVENS POINT  CLOUDY    22  18  84 NW6       30.08R WCI  15
WAUPACA        CLOUDY    28  20  71 NW9       30.08R WCI  19
WAUTOMA        CLOUDY    25  19  78 NW9       30.11  WCI  15
WISC RAPIDS    CLOUDY    23  16  74 NW6       30.11R WCI  16
CAMP DOUGLAS   CLOUDY    23  19  86 NW8       30.11R WCI  14
$$

WIZ011>013-019>022-031-037>040-048>050-240200-
NORTHEAST WISCONSIN

CITY           SKY/WX    TMP DP  RH WIND       PRES   REMARKS
ANTIGO         FAIR      18  14  86 N9        30.05R WCI   6
SHAWANO        FAIR      24  19  78 NW5       30.09R WCI  19
OCONTO         FAIR      22  17  78 NW3       30.07R
STURGEON BAY   FAIR      22  17  81 NW9       30.06R WCI  12
GREEN BAY      CLOUDY    26  20  77 NW8       30.08R WCI  18
MANITOWOC      FAIR      24  19  81 NW6       30.08R WCI  17
APPLETON       CLOUDY    27  18  69 NW12      30.05R WCI  16
CLINTONVILLE   CLOUDY    27  18  69 N7        30.08R WCI  19
OSHKOSH        CLOUDY    28  20  71 NW8       30.07R WCI  20
$$

WIZ032>034-041-042-053>061-240200-
SOUTHWEST WISCONSIN

CITY           SKY/WX    TMP DP  RH WIND       PRES   REMARKS
LA CROSSE      CLOUDY    24  18  77 N6        30.15R WCI  17
SPARTA         CLOUDY    22  19  89 NW6       30.14R WCI  15
VIROQUA        CLOUDY    22  20  95 N7        30.10R WCI  13
BOSCOBEL       CLOUDY    26  19  74 NW5       30.14R WCI  20
PRAIRIE DU CHI CLOUDY    24  18  76 NW9       30.15R WCI  15
PLATTEVILLE    CLOUDY    25  24  96 NW6       30.12R WCI  18
$$

WIZ056-057-062-063-064-067-068-240200-
SOUTH CENTRAL WISCONSIN

CITY           SKY/WX    TMP DP  RH WIND       PRES   REMARKS
REEDSBURG      CLOUDY    24  22  91 N10       30.11R WCI  13
BARABOO/DELLS  CLOUDY    24  21  87 NW5       30.10R WCI  18
LONE ROCK      NOT AVBL
MINERAL POINT  CLOUDY    27  27 100 CALM      30.09R
MADISON        CLOUDY    26  21  81 NW6       30.11R WCI  19
MIDDLETON      CLOUDY    27  23  85 NW12      30.10R WCI  17
WATERTOWN      CLOUDY    26  24  90 W6        30.08R WCI  19
MONROE         CLOUDY    27  23  86 W8        30.09R WCI  18
JANESVILLE     CLOUDY    28  27  93 N6        30.10R WCI  22
$$

WIZ051-052-058>065-066-070>072-240200-
SOUTHEAST WISCONSIN

CITY           SKY/WX    TMP DP  RH WIND       PRES   REMARKS
MILWAUKEE      CLOUDY    30  22  72 NW10      30.07R WCI  21
WAUKESHA       CLOUDY    25  21  86 NW8       30.08R WCI  16
MILWAUKEE/TIMM CLOUDY    28  18  64 N12G17    30.08R WCI  18
RACINE         CLOUDY    28  24  85 NW5       30.09R WCI  23
BURLINGTON     CLOUDY    26  22  84 NW8       30.08R WCI  18
KENOSHA        CLOUDY    28  22  78 NW8       30.08R WCI  20
FOND DU LAC    CLOUDY    28  20  71 NW8       30.07R WCI  20
SHEBOYGAN      CLOUDY    27  22  81 N3        30.06R
WEST BEND      CLOUDY    28  23  80 NW5       30.06R WCI  23
JUNEAU         CLOUDY    26  21  80 W3        30.08R
$$

LSZ147-162-240200-
LAKE SUPERIOR

STATION/POSITION TIME  TEMP    WIND        PRES    WAVE
                       AIR SEA DIR/SP/G            HT/PER
                 (UTC) (F)     (DEG/KT/KT) (MB)    (FT/S)
DEVILS ISLAND    0000   23     110/  8/  9 1021.4R
SAXON HARBOR     0040   20     190/  2/  3 1020.3R
$$

LMZ867-665-643>646-240200-
LAKE MICHIGAN

STATION/POSITION TIME  TEMP    WIND        PRES    WAVE
                       AIR SEA DIR/SP/G            HT/PER
                 (UTC) (F)     (DEG/KT/KT) (MB)    (FT/S)
NORTHPORT PIER   0040   21     330/ 12/ 21 1017.3R
KEWAUNEE LAKESHO 0030   26     330/  8/ 14 1016.8R
SHEBOYGAN LAKESH 0000   28     300/  9/ 11 1018.3R
PORT WASHINGTON  0040   29     300/  4/  8 1019.3R
MILWAUKEE LAKESH 0030   29     320/  7/  8   N/A
KENOSHA   LAKESH 0000   28     300/  7/  9 1018.3
$$

TC  - TEMPERATURE IN CELSIUS
VSB - VISIBILITY IN STATUTE MILES
WCI - WIND CHILL INDEX
HX  - HEAT INDEX





USA.gov is the U.S. government's official web portal to all federal, state and local government web resources and services.